User: anonymous   Login
Location: Bratislava
(48.1500°N, 17.1170°E)
Time: 13:16:27
(UTC+02:00)
Language:

ISS - Orbit

View from above orbital plane
View from above orbital plane
View from above satellite
View from above satellite

Ground track
Ground track

The orbit data is extracted from the following two-line orbital elements,

1 25544U 98067A   19146.39351157  .00016717  00000-0  10270-3 0  9079
2 25544  51.6400 109.4624 0007183 337.8936  22.1904 15.51168275 11867
Epoch (UTC): 26 May 2019 09:26:39
Eccentricity: 0.0007183
inclination: 51.6400°
perigee height: 408 km
apogee height: 418 km
right ascension of ascending node: 109.4624°
argument of perigee: 337.8936°
revolutions per day: 15.51168275
mean anomaly at epoch: 22.1904°
orbit number at epoch: 1186

The dashed part of the orbit path shows where the satellite is in the earth's shadow,  

DLR